Home > Weather > Truro > Past weeks

Flag for United Kingdom Weather for the Past 2 Weeks in Truro, England, United Kingdom

Now
39 °F

Partly cloudy.


Feels Like: 32 °F
Forecast: 46 / 59 °F
Wind: 10 mph from Southeast

Location: Culdrose

Current Time: May 4, 2016 at 7:07:42 AM

Latest Report: May 4, 2016 at 5:50 AM


Visibility: N/A

Pressure: 30.27 "Hg

Humidity: 100%

Dew Point: 39 °F

Location of TruroLocation

Historic Weather in Truro — Graph

°F

Truro Temperature Yesterday

Maximum temperature yesterday: 54 °F (at 1:50 PM)
Minimum temperature yesterday: 43 °F (at 2:50 AM)
Average temperature yesterday: 48 °F

High & Low Weather Summary for the Past Weeks

 TemperatureHumidityPressure
High55 °F (Apr 19, 4:50 PM)100% (Apr 21, 11:50 PM)30.39 "Hg (Apr 21, 11:50 PM)
Low36 °F (Apr 19, 4:50 AM)41% (Apr 30, 1:50 PM)29.89 "Hg (Apr 25, 10:50 PM)
Average47 °F76%30.14 "Hg
* Reported Apr 19 4:50 AM — May 4 4:50 AM, Truro, Weather by CustomWeather, © 2016

Note: Actual official high and low records may vary slightly from our data, if they occured in-between our weather recording intervals... More about our weather records

Advertising

Truro Weather History for the Previous 24 Hours

Scroll right to see more
 ConditionsComfort  
Time TempWeatherWind HumidityBarometerVisibility
4:50 AM
Wed, May 4
39 °FPassing clouds.7 mph93%30.30 "HgN/A
3:50 AM39 °FClear.7 mph93%30.30 "Hg10 mi
2:50 AM41 °FClear.6 mph93%30.30 "Hg10 mi
1:50 AM39 °FClear.6 mph93%30.33 "Hg10 mi
12:50 AM41 °FPassing clouds.6 mph93%30.33 "HgN/A
11:50 PM
Tue, May 3
43 °FPassing clouds.6 mph93%30.36 "HgN/A
10:50 PM46 °FClear.5 mph82%30.36 "Hg10 mi
9:50 PM46 °FPassing clouds.6 mph82%30.36 "HgN/A
8:50 PM48 °FScattered clouds.6 mph82%30.36 "HgN/A
7:50 PM50 °FScattered clouds.6 mph76%30.36 "HgN/A
6:50 PM52 °FPartly sunny.7 mph72%30.36 "HgN/A
5:50 PM52 °FPartly sunny.10 mph67%30.36 "HgN/A
4:50 PM52 °FScattered clouds.9 mph62%30.36 "HgN/A
3:50 PM52 °FScattered clouds.12 mph72%30.36 "HgN/A
2:50 PM54 °FScattered clouds.12 mph67%30.36 "HgN/A
1:50 PM54 °FScattered clouds.10 mph67%30.36 "HgN/A
12:50 PM52 °FScattered clouds.12 mph67%30.36 "HgN/A
11:50 AM50 °FPartly sunny.9 mph71%30.39 "HgN/A
10:50 AM52 °FPartly sunny.5 mph58%30.36 "HgN/A
9:50 AM52 °FScattered clouds.7 mph54%30.36 "HgN/A
8:50 AM50 °FScattered clouds.8 mph67%30.36 "HgN/A
7:50 AM48 °FScattered clouds.6 mph82%30.33 "HgN/A
Weather by CustomWeather, © 2016

See weather overviewHow to use our weather pages